Location: Deposit
(42.0600°N, 75.4280°W)
Time: 16:04:54
(UTC-04:00)

Envisat - Visible Passes

Search period start: 17 October 2019 00:00
Search period end: 27 October 2019 00:00
Orbit: 764 x 766 km, 98.1° (Epoch: 17 October)

Date Brightness Start Highest point End Pass type
(mag) Time Alt. Az. Time Alt. Az. Time Alt. Az.
17 Oct 3.1 18:42:42 10° SSE 18:47:39 55° ENE 18:52:37 10° N visible
17 Oct 5.8 20:23:40 10° SW 20:27:01 18° W 20:30:23 10° NW visible
18 Oct 4.5 19:45:15 10° SSW 19:49:57 38° W 19:54:42 10° NNW visible
19 Oct 3.1 19:08:01 10° SSE 19:13:06 85° WSW 19:18:12 10° NNW visible
20 Oct 5.5 20:11:44 10° SW 20:15:39 22° W 20:19:35 10° NW visible
21 Oct 6.3 06:41:31 10° ENE 06:44:17 15° E 06:47:03 10° ESE visible
21 Oct 4.0 19:33:45 10° S 19:38:39 48° W 19:43:35 10° NNW visible
22 Oct 2.9 18:56:47 10° SSE 19:01:51 77° ENE 19:06:56 10° N visible
22 Oct 6.1 20:39:20 10° WSW 20:41:25 12° W 20:43:32 10° WNW visible
23 Oct 5.1 19:59:58 10° SSW 20:04:17 28° W 20:08:38 10° NW visible
24 Oct 6.6 06:31:23 10° ENE 06:32:53 11° E 06:34:24 10° ESE visible
24 Oct 3.5 19:22:20 10° S 19:27:21 62° W 19:32:24 10° NNW visible
25 Oct 3.0 18:45:38 10° SSE 18:50:37 61° ENE 18:55:38 10° N visible
25 Oct 5.9 20:26:57 10° SW 20:30:02 16° W 20:33:07 10° NW visible
26 Oct 6.0 06:54:57 10° NE 06:58:42 20° E 07:02:25 10° SE visible
26 Oct 4.6 19:48:20 10° SSW 19:52:57 35° W 19:57:35 10° NNW visible
